Le nostre stazioni meteo in Italia

Pubblicità
Il mio iltempo24.it
Grosseto, Italia (16206): Temperatura & dewpoint: 16.11.2019 09:00:00 - 22.11.2019 09:00:00 (CET)Grosseto, Italia (16206): velocità del vento: 16.11.2019 09:00:00 - 22.11.2019 09:00:00 (CET)Grosseto, Italia (16206): direzione del vento: 16.11.2019 09:00:00 - 22.11.2019 09:00:00 (CET)Grosseto, Italia (16206): reduced air pressure: 16.11.2019 09:00:00 - 22.11.2019 09:00:00 (CET)Grosseto, Italia (16206): visibility: 16.11.2019 09:00:00 - 22.11.2019 09:00:00 (CET)
Data & Tempo tt [°C] td [°C] ff [km/h] ff [kn] dd ppp [hPa] vv [km]
22.11.2019 09:00:00 11,8 8,8 8 4 E 1012,1 50
22.11.2019 08:00:00 10,0 8,1 4 2 N 1012,0 40
22.11.2019 07:00:00 8,4 6,5 8 4 NE 1011,9 40
22.11.2019 06:00:00 8,0 6,5 5 3 NE 1012,0 30
22.11.2019 05:00:00 8,2 7,0 8 4 N 1011,8 30
22.11.2019 04:00:00 8,0 6,8 8 4 NNE 1011,9 30
22.11.2019 03:00:00 7,0 6,0 8 4 NE 1012,0 15
22.11.2019 02:00:00 7,0 6,0 8 4 NNE 1012,0 20
22.11.2019 01:00:00 8,0 5,8 9 5 N 1011,9 30
22.11.2019 00:00:00 9,4 6,8 5 3 NNE 1012,1 30
21.11.2019 23:00:00 9,6 6,9 8 4 ESE 1012,1 30
21.11.2019 22:00:00 9,6 7,5 8 4 ENE 1012,1 30
21.11.2019 21:00:00 10,2 7,1 4 2 E 1011,9 20
21.11.2019 20:00:00 10,0 7,1 11 6 E 1011,7 20
21.11.2019 19:00:00 10,0 7,8 11 6 E 1011,8 20
21.11.2019 18:00:00 11,4 7,7 9 5 E 1011,7 20
21.11.2019 17:00:00 13,0 9,2 8 4 SE 1011,2 30
21.11.2019 16:00:00 13,4 11,6 11 6 ESE 1011,0 30
21.11.2019 15:00:00 12,2 10,3 8 4 ESE 1011,0 20
21.11.2019 14:00:00 12,4 9,4 11 6 SE 1011,0 15
21.11.2019 13:00:00 14,0 10,6 15 8 ESE 1011,4 30
21.11.2019 12:00:00 12,8 9,2 18 10 SE 1012,2 30
21.11.2019 11:00:00 12,0 10,1 9 5 ESE 1012,6 30
21.11.2019 10:00:00 10,8 9,1 8 4 NNE 1012,6 30
21.11.2019 09:00:00 9,0 7,6 8 4 N 1012,6 25
21.11.2019 08:00:00 7,6 6,2 9 5 NNE 1012,6 20
21.11.2019 07:00:00 7,6 5,7 5 3 NNE 1012,6 18
21.11.2019 06:00:00 10,0 7,9 8 4 NNE 1012,6 15
21.11.2019 05:00:00 10,0 7,8 5 3 ESE 1012,6 15
21.11.2019 04:00:00 10,0 7,9 15 8 SE 1012,9 15
21.11.2019 03:00:00 9,4 7,4 5 3 NNE 1013,2 15
21.11.2019 02:00:00 9,2 7,3 8 4 NE 1013,2 15
21.11.2019 01:00:00 9,6 7,7 8 4 NE 1013,4 15
21.11.2019 00:00:00 10,0 8,1 5 3 ENE 1013,4 15
20.11.2019 23:00:00 9,8 8,2 8 4 E 1013,5 15
20.11.2019 22:00:00 9,8 8,2 8 4 ENE 1013,4 15
20.11.2019 21:00:00 9,8 8,4 5 3 E 1013,1 30
20.11.2019 20:00:00 9,4 8,0 8 4 ENE 1012,9 30
20.11.2019 19:00:00 9,8 8,6 8 4 N 1012,7 30
20.11.2019 18:00:00 11,0 9,2 8 4 NNO 1012,6 40
20.11.2019 17:00:00 12,2 10,1 5 3 SE 1012,4 50
20.11.2019 16:00:00 12,6 10,1 8 4 S 1012,4 50
20.11.2019 15:00:00 14,6 10,4 9 5 SO 1012,4 10
20.11.2019 14:00:00 16,0 10,1 11 6 OSO 1012,2 40
20.11.2019 13:00:00 16,2 10,5 5 3 SSO 1012,7 40
20.11.2019 12:00:00 14,6 11,2 4 2 N 1013,0 40
20.11.2019 11:00:00 12,2 10,1 4 2 N 1013,1 30
20.11.2019 10:00:00 10,4 8,5 8 4 NE 1013,1 15
20.11.2019 09:00:00 9,2 7,7 9 5 NNE 1012,9 20
20.11.2019 08:00:00 8,6 7,4 4 2 N 1012,9 20
20.11.2019 07:00:00 8,0 6,9 9 5 N 1012,7 10
20.11.2019 06:00:00 9,6 8,0 8 4 NNE 1012,7 20
20.11.2019 05:00:00 9,8 8,2 8 4 N 1012,9 20
20.11.2019 04:00:00 7,8 6,6 9 5 E 1012,9 10
20.11.2019 03:00:00 8,0 6,9 5 3 N 1012,9 10
20.11.2019 02:00:00 8,6 7,5 9 5 N 1012,9 10
20.11.2019 01:00:00 8,6 7,5 9 5 N 1012,9 10
20.11.2019 00:00:00 - - - - - - -
19.11.2019 23:00:00 9,0 8,1 9 5 N 1012,9 10
19.11.2019 22:00:00 9,6 8,0 4 2 NNE 1013,3 10
19.11.2019 21:00:00 9,8 8,7 2 1 - 1013,1 10
19.11.2019 20:00:00 11,0 9,7 5 3 N 1013,1 15
19.11.2019 19:00:00 11,8 10,9 5 3 E 1013,0 15
19.11.2019 18:00:00 11,6 10,2 11 6 E 1013,0 12
19.11.2019 17:00:00 12,2 10,3 8 4 E 1012,9 12
19.11.2019 16:00:00 12,2 10,8 5 3 ENE 1012,5 12
19.11.2019 15:00:00 12,6 10,7 16 9 SSE 1012,6 9
19.11.2019 14:00:00 15,0 12,9 16 9 ESE 1011,5 12
19.11.2019 13:00:00 14,4 12,4 16 9 SE 1011,6 12
19.11.2019 12:00:00 14,8 12,7 21 11 ESE 1011,8 12
19.11.2019 11:00:00 14,4 12,6 18 10 ESE 1011,8 12
19.11.2019 10:00:00 13,4 12,1 21 11 SE 1011,8 8
19.11.2019 09:00:00 14,0 12,0 13 7 E 1011,0 7
19.11.2019 08:00:00 14,0 11,9 16 9 ESE 1010,8 10
19.11.2019 07:00:00 13,8 11,7 16 9 E 1010,2 8
19.11.2019 06:00:00 13,0 10,4 15 8 SE 1010,2 10
19.11.2019 05:00:00 14,0 11,9 11 6 SE 1010,2 10
19.11.2019 04:00:00 14,4 11,9 16 9 SE 1010,1 10
19.11.2019 03:00:00 14,8 12,3 21 11 SE 1010,1 10
19.11.2019 02:00:00 15,0 12,0 28 15 SE 1010,5 10
19.11.2019 01:00:00 15,0 11,6 29 16 SE 1010,2 15
19.11.2019 00:00:00 15,2 11,8 34 18 SSE 1010,3 8
18.11.2019 23:00:00 15,2 10,2 26 14 SSE 1010,6 10
18.11.2019 22:00:00 13,2 10,2 9 5 E 1010,7 10
18.11.2019 21:00:00 12,6 10,8 28 15 SE 1010,7 10
18.11.2019 20:00:00 12,8 10,4 21 11 SE 1010,9 8
18.11.2019 19:00:00 13,0 10,5 15 8 ESE 1010,9 20
18.11.2019 18:00:00 13,0 11,2 18 10 ESE 1011,8 20
18.11.2019 17:00:00 13,0 11,4 15 8 ESE 1010,9 12
18.11.2019 16:00:00 13,0 11,4 13 7 SE 1010,9 8
18.11.2019 15:00:00 14,8 11,4 21 11 SSE 1011,3 4,0
18.11.2019 14:00:00 15,0 10,8 16 9 SE 1011,3 20
18.11.2019 13:00:00 14,0 10,6 15 8 ESE 1011,9 20
18.11.2019 12:00:00 14,0 10,6 16 9 ESE 1012,4 20
18.11.2019 11:00:00 15,0 10,0 18 10 SE 1012,7 20
18.11.2019 10:00:00 13,0 11,2 5 3 SSE 1012,0 30
18.11.2019 09:00:00 6,8 5,1 2 1 NE 1012,0 30
18.11.2019 08:00:00 6,8 5,0 4 2 NNE 1011,7 20
18.11.2019 07:00:00 6,8 5,1 8 4 NNE 1010,8 25
18.11.2019 06:00:00 7,0 5,5 2 1 NO 1010,5 20
18.11.2019 05:00:00 7,8 6,4 4 2 NE 1009,7 20
18.11.2019 04:00:00 7,8 6,3 8 4 NNE 1009,7 20
18.11.2019 03:00:00 7,8 6,3 9 5 N 1009,3 20
18.11.2019 02:00:00 7,8 6,1 9 5 ESE 1009,1 20
18.11.2019 01:00:00 8,6 5,9 11 6 N 1009,1 10
18.11.2019 00:00:00 9,0 7,1 9 5 ENE 1009,0 15
17.11.2019 23:00:00 8,2 6,3 5 3 N 1008,9 12
17.11.2019 22:00:00 8,2 6,5 4 2 E 1008,9 20
17.11.2019 21:00:00 8,2 6,5 11 6 NNE 1008,9 10
17.11.2019 20:00:00 8,0 6,5 9 5 ESE 1007,8 10
17.11.2019 19:00:00 8,8 6,8 9 5 ESE 1007,1 10
17.11.2019 18:00:00 9,8 7,4 8 4 E 1006,9 10
17.11.2019 17:00:00 11,2 7,9 4 2 E 1005,9 15
17.11.2019 16:00:00 12,8 7,9 4 2 N 1005,7 20
17.11.2019 15:00:00 13,2 7,7 9 5 NNE 1005,0 25
17.11.2019 14:00:00 12,0 7,7 11 6 NE 1004,2 10
17.11.2019 13:00:00 12,2 6,5 9 5 NO 1004,3 10
17.11.2019 12:00:00 12,6 8,3 8 4 NNO 1003,8 10
17.11.2019 11:00:00 12,0 9,2 13 7 O 1003,0 10
17.11.2019 10:00:00 11,8 10,0 13 7 OSO 1002,3 10
17.11.2019 09:00:00 12,2 9,4 9 5 SSE 999,9 12
17.11.2019 08:00:00 12,4 9,4 8 4 S 999,1 12
17.11.2019 07:00:00 16,8 13,7 34 18 SO 998,1 10
17.11.2019 06:00:00 13,0 11,1 21 11 SE 996,7 6
17.11.2019 05:00:00 13,4 11,5 13 7 ENE 997,0 4,5
17.11.2019 04:00:00 10,0 8,9 8 4 N 998,2 4,0
17.11.2019 03:00:00 10,6 8,9 15 8 ESE 999,6 4,0
17.11.2019 02:00:00 10,2 8,3 22 12 S 1000,2 4,0
17.11.2019 01:00:00 10,8 8,9 15 8 ENE 1000,8 4,0
17.11.2019 00:00:00 10,0 8,8 15 8 E 1001,1 4,0
16.11.2019 23:00:00 10,4 8,5 5 3 NE 1000,7 4,0
16.11.2019 22:00:00 10,4 8,0 16 9 NE 1001,8 15
16.11.2019 21:00:00 10,8 8,7 22 12 NE 1004,0 8
16.11.2019 20:00:00 10,0 8,4 24 13 NNE 1005,2 12
16.11.2019 19:00:00 9,2 7,7 21 11 N 1007,1 3,5
16.11.2019 18:00:00 9,4 8,0 13 7 NNO 1008,9 3,5
16.11.2019 17:00:00 10,2 8,6 13 7 N 1009,6 3,5
16.11.2019 16:00:00 10,6 8,7 16 9 NNE 1009,2 3,5
16.11.2019 15:00:00 11,8 10,0 11 6 NE 1010,0 5
16.11.2019 14:00:00 12,0 9,9 9 5 NNO 1010,2 30
16.11.2019 13:00:00 12,2 9,4 9 5 N 1011,1 40
16.11.2019 12:00:00 11,8 9,4 5 3 NNE 1011,8 50
16.11.2019 11:00:00 11,2 8,6 8 4 NE 1011,9 50
16.11.2019 10:00:00 10,2 7,6 4 2 NNE 1011,7 50
16.11.2019 09:00:00 10,0 7,2 9 5 E 1011,5 30

tt = Temperatura
td = dewpoint
ff = velocità del vento
dd = direzione del vento
ppp = reduced air pressure
vv = visibility

Stazioni seguenti

WeatherPro
AMSI
MeteoEarth